{"data":{"norad_id":63146,"epoch":"2026-05-24T20:45:47.638080Z","epoch_age_seconds":79867,"freshness":"FRESH","line1":"1 63146U 25043Q   26144.86513470  .00015585  00000+0  57448-3 0  9999","line2":"2 63146  42.9998 312.8315 0002134 247.9635 112.0990 15.27590207 69568","mean_motion":15.27590207,"eccentricity":0.0002134,"inclination_deg":42.9998,"raan_deg":312.8315,"arg_perigee_deg":247.9635,"mean_anomaly_deg":112.099,"bstar":0.00057448,"rev_number":6956,"period_min":94.266118845314,"perigee_km":481.55436218919,"apogee_km":484.48270337058,"semimajor_km":6861.1555327799,"source":"CELESTRAK","updated_at":"2026-05-25T13:38:19.916776Z"}}